TimeEDT,TemperatureF,Dew PointF,Humidity,Sea Level PressureIn,VisibilityMPH,Wind Direction,Wind SpeedMPH,Gust SpeedMPH,PrecipitationIn,Events,Conditions,WindDirDegrees,DateUTC
12:53 AM,19.0,10.0,68,30.24,10.0,East,3.5,-,N/A,,Clear,90,2013-03-18 04:53:00
1:53 AM,19.0,10.9,71,30.23,10.0,East,4.6,-,N/A,,Clear,100,2013-03-18 05:53:00
2:53 AM,19.0,10.9,71,30.22,10.0,ESE,6.9,-,N/A,,Clear,120,2013-03-18 06:53:00
3:53 AM,19.9,12.0,71,30.22,10.0,ESE,9.2,-,N/A,,Clear,120,2013-03-18 07:53:00
4:53 AM,19.9,12.9,74,30.21,10.0,SE,10.4,-,N/A,,Clear,130,2013-03-18 08:53:00
5:53 AM,21.0,12.9,71,30.20,10.0,SE,11.5,-,N/A,,Clear,130,2013-03-18 09:53:00
7:53 AM,23.0,12.9,65,30.16,10.0,SE,15.0,-,N/A,,Clear,140,2013-03-18 11:53:00
8:53 AM,24.1,12.9,62,30.13,10.0,SE,16.1,-,N/A,,Partly Cloudy,140,2013-03-18 12:53:00
9:53 AM,26.1,12.9,58,30.11,10.0,SE,20.7,26.5,N/A,,Overcast,140,2013-03-18 13:53:00
10:32 AM,26.1,14.0,60,30.02,10.0,SE,17.3,28.8,N/A,,Overcast,140,2013-03-18 14:32:00
10:53 AM,26.1,14.0,60,30.08,10.0,SE,18.4,31.1,N/A,,Overcast,140,2013-03-18 14:53:00
11:21 AM,25.0,16.0,69,30.01,1.5,SE,21.9,27.6,0.00,Snow,Light Snow,140,2013-03-18 15:21:00
11:31 AM,25.0,18.0,75,30.00,0.5,SE,18.4,27.6,0.00,Snow,Snow,140,2013-03-18 15:31:00
11:53 AM,24.1,18.0,77,30.06,0.2,SE,21.9,27.6,0.00,Snow,Heavy Snow,140,2013-03-18 15:53:00
12:17 PM,24.1,18.0,77,29.96,0.5,SE,20.7,33.4,0.01,Snow,Snow,130,2013-03-18 16:17:00
12:24 PM,24.1,18.0,77,29.96,0.2,SE,16.1,33.4,0.02,Snow,Heavy Snow,130,2013-03-18 16:24:00
12:53 PM,24.1,18.0,77,30.03,0.5,SE,18.4,27.6,0.03,Snow,Snow,130,2013-03-18 16:53:00
1:00 PM,24.1,18.0,77,29.94,0.2,SE,18.4,27.6,0.00,Snow,Heavy Snow,130,2013-03-18 17:00:00
1:34 PM,24.1,19.0,81,29.91,0.5,SE,20.7,33.4,0.02,Snow,Snow,140,2013-03-18 17:34:00
1:53 PM,25.0,19.0,78,29.99,0.5,SE,18.4,31.1,0.02,Snow,Snow,140,2013-03-18 17:53:00
2:06 PM,25.0,19.0,78,29.90,0.8,SE,19.6,27.6,0.01,Snow,Light Snow,140,2013-03-18 18:06:00
2:32 PM,25.0,19.0,78,29.89,0.5,SE,16.1,33.4,0.01,Snow,Snow,140,2013-03-18 18:32:00
2:53 PM,25.0,19.9,81,29.96,0.2,SE,13.8,25.3,0.02,Snow,Heavy Snow,140,2013-03-18 18:53:00
3:02 PM,25.0,19.9,81,29.87,0.5,SE,17.3,24.2,0.00,Snow,Snow,140,2013-03-18 19:02:00
3:16 PM,26.1,19.9,78,29.87,1.8,SE,15.0,24.2,0.00,Snow,Light Snow,140,2013-03-18 19:16:00
3:18 PM,26.1,19.9,78,29.87,2.0,SE,13.8,-,0.00,Snow,Light Snow,140,2013-03-18 19:18:00
3:26 PM,26.1,19.9,78,29.87,1.8,SE,20.7,27.6,0.00,Snow,Light Snow,140,2013-03-18 19:26:00
3:35 PM,26.1,19.9,78,29.87,1.5,SSE,16.1,26.5,0.00,Snow,Light Snow,150,2013-03-18 19:35:00
3:53 PM,27.0,19.9,75,29.93,1.5,SE,16.1,25.3,0.00,Snow,Light Snow,140,2013-03-18 19:53:00
4:00 PM,27.0,21.0,78,29.85,1.8,SSE,16.1,20.7,0.00,,Overcast,150,2013-03-18 20:00:00
4:07 PM,27.0,21.0,78,29.85,2.0,SE,17.3,29.9,0.01,,Overcast,140,2013-03-18 20:07:00
4:11 PM,27.0,21.0,78,29.85,1.8,SE,17.3,29.9,0.01,Rain,Light Freezing Rain,140,2013-03-18 20:11:00
4:21 PM,27.0,21.0,78,29.85,2.0,SSE,17.3,24.2,0.01,Snow,Light Snow,150,2013-03-18 20:21:00
4:45 PM,27.0,21.0,78,29.83,3.0,SE,19.6,29.9,0.01,Snow,Light Snow,140,2013-03-18 20:45:00
4:53 PM,27.0,19.9,75,29.91,3.0,SE,19.6,31.1,0.01,Snow,Light Snow,140,2013-03-18 20:53:00
5:02 PM,27.0,19.9,75,29.82,2.0,SSE,17.3,29.9,0.00,Snow,Light Snow,150,2013-03-18 21:02:00
5:15 PM,27.0,21.0,78,29.82,4.0,SE,19.6,26.5,0.00,,Overcast,140,2013-03-18 21:15:00
5:53 PM,27.0,21.0,78,29.86,4.0,SSE,17.3,28.8,0.00,,Overcast,150,2013-03-18 21:53:00
6:18 PM,27.0,21.0,78,29.79,5.0,SSE,20.7,27.6,0.00,Rain,Light Freezing Rain,150,2013-03-18 22:18:00
6:30 PM,27.0,21.0,78,29.79,2.0,SSE,15.0,29.9,0.01,Snow,Light Snow,150,2013-03-18 22:30:00
6:39 PM,27.0,21.9,81,29.78,1.5,SE,18.4,31.1,0.01,Snow,Light Snow,140,2013-03-18 22:39:00
6:53 PM,27.0,21.9,81,29.85,2.5,SSE,24.2,31.1,0.01,Snow,Light Snow,150,2013-03-18 22:53:00
7:10 PM,27.0,21.9,81,29.77,4.0,SSE,18.4,28.8,0.00,,Overcast,160,2013-03-18 23:10:00
7:53 PM,28.0,21.9,78,29.83,4.0,SSE,19.6,33.4,0.01,,Overcast,150,2013-03-18 23:53:00
8:53 PM,28.9,23.0,78,29.81,4.0,SE,18.4,33.4,0.03,,Overcast,140,2013-03-19 00:53:00
9:53 PM,28.9,24.1,82,29.79,10.0,SSE,19.6,32.2,0.00,,Overcast,150,2013-03-19 01:53:00
10:06 PM,30.0,25.0,82,29.71,4.0,SSE,18.4,32.2,0.01,Rain,Light Freezing Rain,150,2013-03-19 02:06:00
10:16 PM,30.0,25.0,82,29.71,2.5,SSE,18.4,32.2,0.03,Rain,Light Freezing Rain,150,2013-03-19 02:16:00
10:24 PM,30.0,25.0,82,29.71,4.0,SE,24.2,34.5,0.04,Rain,Light Freezing Rain,140,2013-03-19 02:24:00
10:32 PM,30.0,25.0,82,29.71,4.0,SSE,18.4,34.5,0.04,Snow,Light Snow,150,2013-03-19 02:32:00
10:53 PM,30.9,26.1,82,29.76,4.0,SE,18.4,25.3,0.05,Rain,Light Freezing Rain,140,2013-03-19 02:53:00
11:13 PM,30.9,26.1,82,29.70,6.0,SSE,17.3,26.5,0.00,Snow,Light Snow,150,2013-03-19 03:13:00
11:53 PM,30.9,26.1,82,29.75,10.0,SSE,15.0,23.0,0.00,,Overcast,150,2013-03-19 03:53:00